| time (UTC) | temp F | wind direction | speed MPH | gust MPH | rain 1hr in | rain 24hr in | rain mn in | humidity % | barometer mb |
| 20260902044208 | 67 | 26 | 0.0 | 0.0 | 0.00 | 0.00 | 0.00 | 91 | 1018.8 |
| 20260902043610 | 67 | 26 | 0.0 | 0.0 | 0.00 | 0.00 | 0.00 | 91 | 1018.9 |
| 20260902043007 | 67 | 26 | 0.0 | 0.0 | 0.00 | 0.00 | 0.00 | 91 | 1018.8 |
| 20260902042407 | 67 | 26 | 0.0 | 0.0 | 0.00 | 0.00 | 0.00 | 91 | 1018.7 |
| 20260902041810 | 68 | 26 | 0.0 | 0.0 | 0.00 | 0.00 | 0.00 | 91 | 1018.7 |
| 20260902041209 | 68 | 26 | 0.0 | 0.0 | 0.00 | 0.00 | 0.00 | 90 | 1018.7 |
| 20260902040609 | 68 | 26 | 0.0 | 0.0 | 0.00 | 0.00 | 0.00 | 90 | 1018.6 |
| 20260902035410 | 68 | 26 | 0.0 | 0.0 | 0.00 | 0.00 | 0.00 | 90 | 1018.7 |
| 20260902034806 | 68 | 26 | 0.0 | 0.0 | 0.00 | 0.00 | 0.00 | 90 | 1018.6 |
| 20260902034207 | 68 | 26 | 0.0 | 0.0 | 0.00 | 0.00 | 0.00 | 90 | 1018.7 |
| 20260902033607 | 68 | 26 | 0.0 | 0.0 | 0.00 | 0.00 | 0.00 | 88 | 1018.7 |
| 20260902033009 | 68 | 26 | 0.0 | 0.0 | 0.00 | 0.00 | 0.00 | 88 | 1018.6 |
| 20260902032407 | 69 | 26 | 0.0 | 0.0 | 0.00 | 0.00 | 0.00 | 88 | 1018.6 |
| 20260902031806 | 69 | 26 | 0.0 | 0.0 | 0.00 | 0.00 | 0.00 | 87 | 1018.6 |
| 20260902031207 | 69 | 26 | 0.0 | 0.0 | 0.00 | 0.00 | 0.00 | 87 | 1018.6 |
| 20260902030607 | 69 | 26 | 0.0 | 0.0 | 0.00 | 0.00 | 0.00 | 86 | 1018.7 |
| 20260902025409 | 70 | 26 | 0.0 | 0.0 | 0.00 | 0.00 | 0.00 | 85 | 1018.6 |
| 20260902024807 | 69 | 26 | 0.0 | 1.0 | 0.00 | 0.00 | 0.00 | 85 | 1018.6 |
| 20260902024207 | 69 | 26 | 0.0 | 0.0 | 0.00 | 0.00 | 0.00 | 86 | 1018.5 |
| 20260902023607 | 70 | 26 | 0.0 | 0.0 | 0.00 | 0.00 | 0.00 | 85 | 1018.6 |
| 20260902023010 | 70 | 26 | 0.0 | 0.0 | 0.00 | 0.00 | 0.00 | 83 | 1018.6 |
| 20260902022408 | 70 | 26 | 0.0 | 0.0 | 0.00 | 0.00 | 0.00 | 83 | 1018.6 |
| 20260902021808 | 70 | 26 | 2.0 | 2.0 | 0.00 | 0.00 | 0.00 | 83 | 1018.6 |
| 20260902021209 | 70 | 26 | 0.0 | 0.0 | 0.00 | 0.00 | 0.00 | 83 | 1018.6 |
| 20260902020607 | 70 | 26 | 1.0 | 1.0 | 0.00 | 0.00 | 0.00 | 83 | 1018.6 |
| 20260902015407 | 70 | 26 | 0.0 | 0.0 | 0.00 | 0.00 | 0.00 | 83 | 1018.6 |
| 20260902014807 | 71 | 26 | 0.0 | 0.0 | 0.00 | 0.00 | 0.00 | 83 | 1018.6 |
| 20260902014207 | 71 | 26 | 0.0 | 0.0 | 0.00 | 0.00 | 0.00 | 82 | 1018.5 |
| 20260902013608 | 71 | 26 | 0.0 | 1.0 | 0.00 | 0.00 | 0.00 | 82 | 1018.6 |
| 20260902013007 | 71 | 26 | 0.0 | 0.0 | 0.00 | 0.00 | 0.00 | 83 | 1018.4 |
| 20260902012407 | 71 | 26 | 0.0 | 0.0 | 0.00 | 0.00 | 0.00 | 83 | 1018.5 |
| 20260902011807 | 71 | 26 | 0.0 | 0.0 | 0.00 | 0.00 | 0.00 | 83 | 1018.5 |
| 20260902011207 | 71 | 26 | 0.0 | 0.0 | 0.00 | 0.00 | 0.00 | 83 | 1018.6 |
| 20260902010610 | 71 | 26 | 0.0 | 1.0 | 0.00 | 0.00 | 0.00 | 82 | 1018.7 |
| 20260902005409 | 72 | 26 | 0.0 | 0.0 | 0.00 | 0.00 | 0.00 | 81 | 1018.7 |
| 20260902004809 | 72 | 24 | 0.0 | 0.0 | 0.00 | 0.00 | 0.00 | 81 | 1018.7 |
| 20260902004209 | 72 | 24 | 1.0 | 2.0 | 0.00 | 0.00 | 0.00 | 80 | 1018.8 |
| 20260902003609 | 71 | 14 | 0.0 | 0.0 | 0.00 | 0.00 | 0.00 | 81 | 1018.7 |
| 20260902003007 | 71 | 14 | 0.0 | 0.0 | 0.00 | 0.00 | 0.00 | 82 | 1018.8 |
| 20260902002410 | 71 | 14 | 0.0 | 0.0 | 0.00 | 0.00 | 0.00 | 82 | 1018.8 |
| 20260902001810 | 72 | 14 | 0.0 | 0.0 | 0.00 | 0.00 | 0.00 | 81 | 1018.8 |
| 20260902001208 | 72 | 14 | 0.0 | 0.0 | 0.00 | 0.00 | 0.00 | 81 | 1018.9 |
| 20260902000607 | 72 | 14 | 0.0 | 1.0 | 0.00 | 0.00 | 0.00 | 81 | 1018.9 |
| 20260901235407 | 72 | 14 | 0.0 | 0.0 | 0.00 | 0.00 | 0.00 | 81 | 1018.9 |
| 20260901234807 | 72 | 14 | 0.0 | 0.0 | 0.00 | 0.00 | 0.00 | 80 | 1018.9 |
| 20260901234210 | 72 | 84 | 0.0 | 2.0 | 0.00 | 0.00 | 0.00 | 81 | 1018.8 |
| 20260901233608 | 72 | 84 | 0.0 | 0.0 | 0.00 | 0.00 | 0.00 | 82 | 1018.9 |
| 20260901233009 | 72 | 84 | 0.0 | 0.0 | 0.00 | 0.00 | 0.00 | 82 | 1018.8 |
| 20260901232410 | 72 | 84 | 0.0 | 0.0 | 0.00 | 0.00 | 0.00 | 81 | 1018.8 |
| 20260901231810 | 72 | 84 | 0.0 | 0.0 | 0.00 | 0.00 | 0.00 | 80 | 1018.8 |
| 20260901231207 | 72 | 84 | 1.0 | 2.0 | 0.00 | 0.00 | 0.00 | 80 | 1018.8 |
| 20260901230608 | 72 | 84 | 0.0 | 0.0 | 0.00 | 0.00 | 0.00 | 80 | 1018.8 |
| 20260901225407 | 72 | 84 | 1.0 | 2.0 | 0.00 | 0.00 | 0.00 | 78 | 1018.7 |
| 20260901224809 | 72 | 84 | 0.0 | 0.0 | 0.00 | 0.00 | 0.00 | 82 | 1018.7 |
| 20260901224210 | 72 | 84 | 0.0 | 0.0 | 0.00 | 0.00 | 0.00 | 80 | 1018.8 |
| 20260901223609 | 73 | 84 | 0.0 | 0.0 | 0.00 | 0.00 | 0.00 | 80 | 1018.8 |
| 20260901223008 | 73 | 84 | 0.0 | 0.0 | 0.00 | 0.00 | 0.00 | 78 | 1018.8 |
| 20260901222413 | 72 | 84 | 0.0 | 0.0 | 0.00 | 0.00 | 0.00 | 80 | 1018.8 |
| 20260901221814 | 72 | 84 | 0.0 | 0.0 | 0.00 | 0.00 | 0.00 | 82 | 1018.7 |
| 20260901221207 | 73 | 84 | 0.0 | 0.0 | 0.00 | 0.00 | 0.00 | 82 | 1018.8 |
| 20260901220609 | 73 | 84 | 0.0 | 0.0 | 0.00 | 0.00 | 0.00 | 80 | 1018.8 |
| 20260901215407 | 73 | 84 | 0.0 | 0.0 | 0.00 | 0.00 | 0.00 | 78 | 1018.8 |
| 20260901214809 | 74 | 84 | 0.0 | 0.0 | 0.00 | 0.00 | 0.00 | 75 | 1018.7 |
| 20260901214209 | 74 | 84 | 0.0 | 0.0 | 0.00 | 0.00 | 0.00 | 73 | 1018.7 |
| 20260901213607 | 74 | 84 | 0.0 | 0.0 | 0.00 | 0.00 | 0.00 | 75 | 1018.6 |
| 20260901213008 | 74 | 84 | 0.0 | 0.0 | 0.00 | 0.00 | 0.00 | 75 | 1018.7 |
| 20260901212409 | 74 | 84 | 0.0 | 0.0 | 0.00 | 0.00 | 0.00 | 76 | 1018.6 |
| 20260901211807 | 74 | 84 | 0.0 | 0.0 | 0.00 | 0.00 | 0.00 | 77 | 1018.6 |
| 20260901211209 | 74 | 84 | 0.0 | 0.0 | 0.00 | 0.00 | 0.00 | 76 | 1018.5 |
| 20260901210607 | 75 | 84 | 0.0 | 0.0 | 0.00 | 0.00 | 0.00 | 75 | 1018.5 |
| 20260901205408 | 75 | 84 | 0.0 | 0.0 | 0.00 | 0.00 | 0.00 | 72 | 1018.6 |
| 20260901204809 | 75 | 84 | 0.0 | 0.0 | 0.00 | 0.00 | 0.00 | 75 | 1018.7 |
| 20260901204207 | 76 | 84 | 0.0 | 0.0 | 0.00 | 0.00 | 0.00 | 72 | 1018.6 |
| 20260901203607 | 76 | 84 | 0.0 | 0.0 | 0.00 | 0.00 | 0.00 | 70 | 1018.6 |
| 20260901203010 | 76 | 84 | 0.0 | 0.0 | 0.00 | 0.00 | 0.00 | 70 | 1018.6 |
| 20260901202410 | 76 | 84 | 0.0 | 0.0 | 0.00 | 0.00 | 0.00 | 69 | 1018.5 |
| 20260901201815 | 76 | 84 | 0.0 | 0.0 | 0.00 | 0.00 | 0.00 | 71 | 1018.5 |
| 20260901201207 | 76 | 84 | 0.0 | 0.0 | 0.00 | 0.00 | 0.00 | 70 | 1018.5 |
| 20260901200607 | 77 | 84 | 0.0 | 0.0 | 0.00 | 0.00 | 0.00 | 70 | 1018.4 |
| 20260901195409 | 77 | 84 | 0.0 | 0.0 | 0.00 | 0.00 | 0.00 | 70 | 1018.3 |
| 20260901194807 | 77 | 84 | 0.0 | 0.0 | 0.00 | 0.00 | 0.00 | 67 | 1018.3 |
| 20260901194208 | 77 | 84 | 0.0 | 0.0 | 0.00 | 0.00 | 0.00 | 67 | 1018.4 |
| 20260901193616 | 77 | 84 | 0.0 | 0.0 | 0.00 | 0.00 | 0.00 | 69 | 1018.2 |
| 20260901193007 | 77 | 84 | 0.0 | 0.0 | 0.00 | 0.00 | 0.00 | 67 | 1018.3 |
| 20260901192410 | 77 | 84 | 0.0 | 0.0 | 0.00 | 0.00 | 0.00 | 65 | 1018.2 |
| 20260901191808 | 77 | 84 | 0.0 | 0.0 | 0.00 | 0.00 | 0.00 | 65 | 1018.2 |
| 20260901191213 | 77 | 84 | 0.0 | 0.0 | 0.00 | 0.00 | 0.00 | 65 | 1018.1 |
| 20260901190608 | 78 | 90 | 1.0 | 2.0 | 0.00 | 0.00 | 0.00 | 63 | 1018.1 |
| 20260901185407 | 78 | 90 | 0.0 | 0.0 | 0.00 | 0.00 | 0.00 | 61 | 1017.9 |
| 20260901184809 | 78 | 90 | 0.0 | 0.0 | 0.00 | 0.00 | 0.00 | 60 | 1017.9 |
| 20260901184207 | 78 | 90 | 0.0 | 0.0 | 0.00 | 0.00 | 0.00 | 59 | 1017.9 |
| 20260901183609 | 78 | 90 | 0.0 | 0.0 | 0.00 | 0.00 | 0.00 | 58 | 1017.8 |
| 20260901183009 | 79 | 90 | 0.0 | 0.0 | 0.00 | 0.00 | 0.00 | 57 | 1017.8 |
| 20260901182409 | 79 | 90 | 0.0 | 0.0 | 0.00 | 0.00 | 0.00 | 60 | 1017.8 |
| 20260901181814 | 80 | 90 | 0.0 | 0.0 | 0.00 | 0.00 | 0.00 | 58 | 1017.8 |
| 20260901181216 | 80 | 90 | 0.0 | 0.0 | 0.00 | 0.00 | 0.00 | 54 | 1017.7 |
| 20260901180607 | 80 | 90 | 0.0 | 0.0 | 0.00 | 0.00 | 0.00 | 54 | 1017.7 |
| 20260901175411 | 82 | 90 | 0.0 | 0.0 | 0.00 | 0.00 | 0.00 | 51 | 1017.6 |
| 20260901174808 | 82 | 90 | 0.0 | 0.0 | 0.00 | 0.00 | 0.00 | 48 | 1017.5 |
| 20260901174207 | 83 | 90 | 0.0 | 0.0 | 0.00 | 0.00 | 0.00 | 45 | 1017.4 |
| 20260901173610 | 84 | 90 | 1.0 | 1.0 | 0.00 | 0.00 | 0.00 | 44 | 1017.4 |
| 20260901172413 | 84 | 74 | 1.0 | 2.0 | 0.00 | 0.00 | 0.00 | 42 | 1017.4 |
| 20260901171810 | 85 | 74 | 0.0 | 0.0 | 0.00 | 0.00 | 0.00 | 41 | 1017.4 |
| 20260901171210 | 86 | 74 | 0.0 | 0.0 | 0.00 | 0.00 | 0.00 | 40 | 1017.4 |
| 20260901170609 | 86 | 66 | 0.0 | 1.0 | 0.00 | 0.00 | 0.00 | 40 | 1017.5 |
| 20260901165410 | 86 | 79 | 1.0 | 2.0 | 0.00 | 0.00 | 0.00 | 40 | 1017.5 |
| 20260901164809 | 85 | 105 | 1.0 | 2.0 | 0.00 | 0.00 | 0.00 | 41 | 1017.6 |
| 20260901164207 | 85 | 79 | 2.0 | 2.0 | 0.00 | 0.00 | 0.00 | 40 | 1017.6 |
| 20260901163607 | 85 | 96 | 1.0 | 5.0 | 0.00 | 0.00 | 0.00 | 41 | 1017.6 |
| 20260901162407 | 86 | 60 | 2.0 | 4.0 | 0.00 | 0.00 | 0.00 | 40 | 1017.5 |
| 20260901161808 | 85 | 89 | 2.0 | 4.0 | 0.00 | 0.00 | 0.00 | 40 | 1017.7 |
| 20260901161207 | 85 | 96 | 2.0 | 4.0 | 0.00 | 0.00 | 0.00 | 40 | 1017.7 |
| 20260901160608 | 84 | 72 | 2.0 | 2.0 | 0.00 | 0.00 | 0.00 | 39 | 1017.7 |
| 20260901155409 | 86 | 86 | 1.0 | 4.0 | 0.00 | 0.00 | 0.00 | 39 | 1017.7 |
| 20260901154807 | 85 | 136 | 2.0 | 3.0 | 0.00 | 0.00 | 0.00 | 38 | 1017.8 |
| 20260901154208 | 85 | 100 | 2.0 | 3.0 | 0.00 | 0.00 | 0.00 | 38 | 1017.8 |
| 20260901152409 | 86 | 92 | 2.0 | 4.0 | 0.00 | 0.00 | 0.00 | 39 | 1017.9 |
| 20260901151807 | 86 | 90 | 3.0 | 5.0 | 0.00 | 0.00 | 0.00 | 39 | 1017.9 |
| 20260901151207 | 86 | 77 | 2.0 | 3.0 | 0.00 | 0.00 | 0.00 | 38 | 1018.0 |
| 20260901150607 | 86 | 135 | 2.0 | 4.0 | 0.00 | 0.00 | 0.00 | 38 | 1017.9 |
| 20260901144809 | 86 | 95 | 2.0 | 3.0 | 0.00 | 0.00 | 0.00 | 39 | 1018.0 |
| 20260901144207 | 86 | 61 | 3.0 | 5.0 | 0.00 | 0.00 | 0.00 | 38 | 1018.1 |
| 20260901143607 | 86 | 90 | 1.0 | 3.0 | 0.00 | 0.00 | 0.00 | 39 | 1018.1 |
| 20260901142409 | 86 | 114 | 3.0 | 5.0 | 0.00 | 0.00 | 0.00 | 39 | 1018.2 |
| 20260901141807 | 86 | 107 | 2.0 | 4.0 | 0.00 | 0.00 | 0.00 | 39 | 1018.2 |
| 20260901141207 | 86 | 77 | 3.0 | 4.0 | 0.00 | 0.00 | 0.00 | 41 | 1018.1 |
| 20260901140607 | 86 | 113 | 3.0 | 4.0 | 0.00 | 0.00 | 0.00 | 40 | 1018.2 |
| 20260901135410 | 86 | 89 | 1.0 | 2.0 | 0.00 | 0.00 | 0.00 | 40 | 1018.3 |
| 20260901134809 | 85 | 57 | 4.0 | 6.0 | 0.00 | 0.00 | 0.00 | 42 | 1018.3 |
| 20260901134207 | 85 | 87 | 2.0 | 3.0 | 0.00 | 0.00 | 0.00 | 41 | 1018.3 |
| 20260901133607 | 86 | 106 | 3.0 | 6.0 | 0.00 | 0.00 | 0.00 | 41 | 1018.4 |
| 20260901133007 | 86 | 65 | 3.0 | 5.0 | 0.00 | 0.00 | 0.00 | 41 | 1018.5 |
| 20260901132407 | 86 | 65 | 2.0 | 3.0 | 0.00 | 0.00 | 0.00 | 42 | 1018.4 |
| 20260901131810 | 86 | 69 | 2.0 | 3.0 | 0.00 | 0.00 | 0.00 | 41 | 1018.5 |
| 20260901131208 | 86 | 68 | 2.0 | 4.0 | 0.00 | 0.00 | 0.00 | 42 | 1018.5 |
| 20260901130608 | 85 | 79 | 3.0 | 5.0 | 0.00 | 0.00 | 0.00 | 42 | 1018.5 |
| 20260901125407 | 84 | 71 | 3.0 | 5.0 | 0.00 | 0.00 | 0.00 | 43 | 1018.7 |
| 20260901124810 | 86 | 78 | 4.0 | 5.0 | 0.00 | 0.00 | 0.00 | 42 | 1018.7 |
| 20260901124210 | 85 | 66 | 3.0 | 7.0 | 0.00 | 0.00 | 0.00 | 43 | 1018.7 |
| 20260901123607 | 85 | 71 | 2.0 | 4.0 | 0.00 | 0.00 | 0.00 | 43 | 1018.7 |
| 20260901123007 | 85 | 94 | 3.0 | 5.0 | 0.00 | 0.00 | 0.00 | 43 | 1018.8 |
| 20260901122407 | 84 | 63 | 5.0 | 8.0 | 0.00 | 0.00 | 0.00 | 44 | 1019.0 |
| 20260901121809 | 84 | 62 | 5.0 | 9.0 | 0.00 | 0.00 | 0.00 | 43 | 1019.0 |
| 20260901121208 | 84 | 76 | 3.0 | 6.0 | 0.00 | 0.00 | 0.00 | 43 | 1018.9 |
| 20260901120610 | 84 | 65 | 3.0 | 5.0 | 0.00 | 0.00 | 0.00 | 45 | 1019.0 |
| 20260901115407 | 83 | 68 | 6.0 | 9.0 | 0.00 | 0.00 | 0.00 | 46 | 1019.1 |
| 20260901114808 | 83 | 49 | 2.0 | 3.0 | 0.00 | 0.00 | 0.00 | 46 | 1019.0 |
| 20260901114603 | 83 | 71 | 7.0 | 9.0 | 0.00 | 0.00 | 0.00 | 48 | 1019.1 |
| 20260901114210 | 83 | 71 | 7.0 | 9.0 | 0.00 | 0.00 | 0.00 | 48 | 1019.1 |
| 20260901113607 | 83 | 64 | 3.0 | 4.0 | 0.00 | 0.00 | 0.00 | 48 | 1019.1 |
| 20260901113007 | 84 | 72 | 2.0 | 3.0 | 0.00 | 0.00 | 0.00 | 46 | 1019.1 |
| 20260901112407 | 83 | 53 | 6.0 | 11.0 | 0.00 | 0.00 | 0.00 | 48 | 1019.2 |
| 20260901111808 | 84 | 55 | 4.0 | 6.0 | 0.00 | 0.00 | 0.00 | 46 | 1019.2 |
| 20260901111209 | 84 | 70 | 4.0 | 7.0 | 0.00 | 0.00 | 0.00 | 48 | 1019.2 |
| 20260901110607 | 83 | 74 | 1.0 | 2.0 | 0.00 | 0.00 | 0.00 | 46 | 1019.1 |
| 20260901105408 | 84 | 66 | 5.0 | 9.0 | 0.00 | 0.00 | 0.00 | 50 | 1019.2 |
| 20260901104807 | 84 | 86 | 4.0 | 6.0 | 0.00 | 0.00 | 0.00 | 50 | 1019.3 |
| 20260901104207 | 83 | 70 | 5.0 | 8.0 | 0.00 | 0.00 | 0.00 | 50 | 1019.4 |
| 20260901103607 | 83 | 69 | 2.0 | 3.0 | 0.00 | 0.00 | 0.00 | 52 | 1019.3 |
| 20260901103007 | 83 | 55 | 5.0 | 7.0 | 0.00 | 0.00 | 0.00 | 52 | 1019.3 |
| 20260901102407 | 83 | 70 | 5.0 | 7.0 | 0.00 | 0.00 | 0.00 | 52 | 1019.4 |
| 20260901101808 | 83 | 34 | 2.0 | 3.0 | 0.00 | 0.00 | 0.00 | 51 | 1019.4 |
| 20260901101207 | 82 | 59 | 3.0 | 7.0 | 0.00 | 0.00 | 0.00 | 52 | 1019.5 |
| 20260901100610 | 83 | 67 | 5.0 | 9.0 | 0.00 | 0.00 | 0.00 | 51 | 1019.6 |
| 20260901095407 | 82 | 65 | 3.0 | 5.0 | 0.00 | 0.00 | 0.00 | 53 | 1019.5 |
| 20260901095258 | 82 | 61 | 6.0 | 7.0 | 0.00 | 0.00 | 0.00 | 53 | 1019.6 |
| 20260901094809 | 82 | 61 | 6.0 | 7.0 | 0.00 | 0.00 | 0.00 | 53 | 1019.6 |
| 20260901094208 | 81 | 53 | 3.0 | 5.0 | 0.00 | 0.00 | 0.00 | 53 | 1019.6 |
| 20260901093608 | 81 | 65 | 4.0 | 6.0 | 0.00 | 0.00 | 0.00 | 51 | 1019.7 |
| 20260901093007 | 81 | 62 | 7.0 | 10.0 | 0.00 | 0.00 | 0.00 | 52 | 1019.7 |
| 20260901092407 | 81 | 68 | 5.0 | 8.0 | 0.00 | 0.00 | 0.00 | 52 | 1019.6 |
| 20260901091846 | 80 | 53 | 7.0 | 12.0 | 0.00 | 0.00 | 0.00 | 52 | 1019.7 |
| 20260901091807 | 80 | 53 | 7.0 | 12.0 | 0.00 | 0.00 | 0.00 | 52 | 1019.7 |
| 20260901091207 | 81 | 69 | 4.0 | 7.0 | 0.00 | 0.00 | 0.00 | 52 | 1019.6 |
| 20260901090607 | 81 | 66 | 6.0 | 9.0 | 0.00 | 0.00 | 0.00 | 53 | 1019.7 |
| 20260901085410 | 80 | 63 | 7.0 | 10.0 | 0.00 | 0.00 | 0.00 | 52 | 1019.6 |
| 20260901084810 | 80 | 61 | 8.0 | 10.0 | 0.00 | 0.00 | 0.00 | 53 | 1019.6 |
| 20260901084207 | 80 | 60 | 6.0 | 10.0 | 0.00 | 0.00 | 0.00 | 52 | 1019.5 |
| 20260901083608 | 80 | 60 | 7.0 | 10.0 | 0.00 | 0.00 | 0.00 | 52 | 1019.4 |
| 20260901083007 | 79 | 56 | 8.0 | 12.0 | 0.00 | 0.00 | 0.00 | 53 | 1019.4 |
| 20260901082407 | 79 | 61 | 4.0 | 8.0 | 0.00 | 0.00 | 0.00 | 54 | 1019.3 |
| 20260901081807 | 79 | 61 | 5.0 | 9.0 | 0.00 | 0.00 | 0.00 | 53 | 1019.2 |
| 20260901081548 | 78 | 60 | 8.0 | 10.0 | 0.00 | 0.00 | 0.00 | 54 | 1019.1 |
| 20260901081207 | 78 | 55 | 5.0 | 11.0 | 0.00 | 0.00 | 0.00 | 54 | 1019.2 |
| 20260901080607 | 78 | 60 | 8.0 | 10.0 | 0.00 | 0.00 | 0.00 | 54 | 1019.1 |
| 20260901075408 | 78 | 65 | 7.0 | 11.0 | 0.00 | 0.00 | 0.00 | 54 | 1019.0 |
| 20260901074808 | 78 | 60 | 6.0 | 10.0 | 0.00 | 0.00 | 0.00 | 54 | 1019.0 |
| 20260901074207 | 78 | 59 | 6.0 | 12.0 | 0.00 | 0.00 | 0.00 | 54 | 1018.9 |
| 20260901073607 | 78 | 64 | 5.0 | 10.0 | 0.00 | 0.00 | 0.00 | 54 | 1018.8 |
| 20260901073007 | 78 | 47 | 5.0 | 8.0 | 0.00 | 0.00 | 0.00 | 54 | 1018.8 |
| 20260901072407 | 78 | 64 | 3.0 | 6.0 | 0.00 | 0.00 | 0.00 | 57 | 1018.7 |
| 20260901071807 | 77 | 59 | 7.0 | 10.0 | 0.00 | 0.00 | 0.00 | 58 | 1018.7 |
| 20260901071208 | 77 | 52 | 4.0 | 10.0 | 0.00 | 0.00 | 0.00 | 60 | 1018.7 |
| 20260901070610 | 77 | 30 | 3.0 | 5.0 | 0.00 | 0.00 | 0.00 | 64 | 1018.7 |
| 20260901065409 | 74 | 46 | 2.0 | 4.0 | 0.00 | 0.00 | 0.00 | 69 | 1018.6 |
| 20260901064810 | 75 | 46 | 2.0 | 5.0 | 0.00 | 0.00 | 0.00 | 69 | 1018.7 |
| 20260901064207 | 74 | 72 | 0.0 | 2.0 | 0.00 | 0.00 | 0.00 | 67 | 1018.6 |
| 20260901063610 | 74 | 65 | 1.0 | 3.0 | 0.00 | 0.00 | 0.00 | 70 | 1018.5 |
| 20260901063010 | 74 | 44 | 2.0 | 2.0 | 0.00 | 0.00 | 0.00 | 70 | 1018.6 |
| 20260901062410 | 74 | 48 | 1.0 | 2.0 | 0.00 | 0.00 | 0.00 | 70 | 1018.6 |
| 20260901061807 | 74 | 353 | 1.0 | 2.0 | 0.00 | 0.00 | 0.00 | 70 | 1018.5 |
| 20260901061207 | 74 | 6 | 1.0 | 2.0 | 0.00 | 0.00 | 0.00 | 69 | 1018.5 |
| 20260901060610 | 74 | 279 | 0.0 | 2.0 | 0.00 | 0.00 | 0.00 | 70 | 1018.4 |
| 20260901055407 | 74 | 58 | 0.0 | 1.0 | 0.00 | 0.00 | 0.00 | 67 | 1018.3 |
| 20260901054807 | 73 | 47 | 1.0 | 2.0 | 0.00 | 0.00 | 0.00 | 70 | 1018.2 |
| 20260901054207 | 73 | 72 | 1.0 | 2.0 | 0.00 | 0.00 | 0.00 | 70 | 1018.2 |
| 20260901053608 | 73 | 77 | 1.0 | 3.0 | 0.00 | 0.00 | 0.00 | 69 | 1018.3 |
| 20260901053007 | 73 | 52 | 2.0 | 4.0 | 0.00 | 0.00 | 0.00 | 69 | 1018.1 |
| 20260901052410 | 73 | 68 | 3.0 | 5.0 | 0.00 | 0.00 | 0.00 | 67 | 1018.1 |
| 20260901051807 | 73 | 36 | 2.0 | 2.0 | 0.00 | 0.00 | 0.00 | 69 | 1018.1 |
| 20260901051210 | 73 | 47 | 2.0 | 5.0 | 0.00 | 0.00 | 0.00 | 69 | 1018.0 |
| 20260901050608 | 72 | 62 | 2.0 | 4.0 | 0.00 | 0.00 | 0.00 | 69 | 1017.9 |
| 20260901045407 | 72 | 65 | 0.0 | 1.0 | 0.00 | 0.00 | 0.00 | 70 | 1017.7 |
| 20260901044807 | 72 | 60 | 0.0 | 2.0 | 0.00 | 0.00 | 0.00 | 70 | 1017.6 |